#timestamp,LO_Frequency,Hit,StdDev 
1530648015.5,286047001.1,N
1530648035.4,286046997.5,N
1530648055.2,286046995.1,N
1530648075.0,286046995.5,N
1530648075.9,286046995.5,N
1530648095.8,286046993.8,N
1530648115.6,286046994.8,N
1530648135.5,286046995.6,N
1530648155.3,286046995.3,N
1530648175.1,286046996.1,N
1530648195.9,286046993.3,N
1530648215.7,286046994.0,N
1530648235.5,286046995.9,N
1530648255.4,286046997.1,N
1530648275.2,286046996.0,N
1530648295.1,286046995.9,N
1530648296.0,286046995.9,N
1530648315.8,286046993.6,N
1530648335.6,286046995.4,N
1530648355.5,286046995.8,N
1530648375.3,286046995.0,N
1530648395.1,286046997.1,N
1530648415.9,286047000.5,N
1530648435.7,286047002.0,N
1530648455.6,286047003.2,N
1530648475.4,286047007.5,N
1530648495.2,286047007.9,N
1530648515.1,286047010.6,N
1530648516.0,286047010.6,N
1530648535.8,286047009.6,N
1530648555.7,286047010.7,N
1530648575.5,286047010.2,N
1530648595.3,286047009.4,N
1530648615.2,286047012.4,N
1530648635.0,286047010.9,N
1530648635.9,286047010.9,N
1530648655.7,286047013.9,N
1530648675.6,286047011.0,N
1530648695.4,286047012.5,N
1530648715.3,286047013.1,N
1530648735.1,286047013.7,N
1530648736.0,286047013.7,N
1530648755.8,286047013.3,N
1530648775.7,286047013.5,N
1530648795.5,286047013.6,N
1530648815.3,286047015.2,N
1530648835.2,286047016.7,N
1530648855.0,286047016.6,N
1530648855.9,286047016.6,N
1530648875.8,286047016.3,N
1530648895.6,286047018.0,Y
1530648915.4,286047009.2,P
1530648935.3,286047007.2,P
1530648955.1,286047007.6,P
1530648975.9,286047007.1,Y
1530648995.7,286046999.6,P
1530649015.5,286046998.8,N
1530649035.4,286046999.4,N
1530649055.2,286046999.1,N
1530649075.0,286046997.8,N
1530649075.9,286046997.8,N
1530649095.8,286046997.2,N
1530649115.6,286046998.0,N
1530649135.5,286046995.6,N
1530649155.3,286046997.2,N
1530649175.1,286046995.1,N
1530649195.9,286046999.6,N
1530649215.7,286046999.3,N
1530649235.5,286046996.6,N
1530649255.4,286046999.5,N
1530649275.2,286046997.9,N
1530649295.1,286046995.0,N
1530649296.0,286046995.0,N
1530649315.8,286046995.7,N
1530649335.6,286046997.1,N
1530649355.5,286046997.8,N
1530649375.3,286046997.8,N
1530649395.1,286046997.4,N
1530649415.9,286046996.2,N
1530649435.7,286046996.1,N
1530649455.6,286046993.3,N
1530649475.4,286046996.4,N
1530649495.2,286046997.9,N
1530649515.1,286046997.9,N
1530649516.0,286046997.9,N
1530649535.8,286046995.2,Y
1530649555.7,286046999.4,P
1530649575.5,286046996.6,P
1530649595.3,286046999.6,N
1530649615.2,286046996.7,N
1530649635.0,286046999.5,N
1530649635.9,286046999.5,N
1530649655.7,286046997.6,N
1530649675.6,286046999.2,N
1530649695.4,286046996.9,N
1530649715.3,286046999.5,N
1530649735.1,286047000.9,N
1530649736.0,286047000.9,N
1530649755.8,286046998.7,N
1530649775.7,286047000.0,N
1530649795.5,286047000.9,N
1530649815.3,286047001.2,N
1530649835.2,286046998.3,N
1530649855.0,286047000.0,N
1530649855.9,286047000.0,N
1530649875.8,286047002.8,N
1530649895.6,286047002.6,N
1530649915.4,286047001.8,N
1530649935.3,286047002.5,N
1530649955.1,286047000.5,N
1530649975.8,286047001.0,N
1530649995.7,286046998.3,N
1530650015.5,286047001.2,N
1530650035.4,286046999.8,N
1530650055.2,286047001.0,N
1530650075.0,286047002.1,N
1530650075.9,286047002.1,N
1530650095.8,286047000.6,N
1530650115.6,286046999.6,N
1530650135.5,286046995.0,Y
1530650155.3,286046994.8,P
1530650175.1,286046988.7,P
1530650195.9,286046989.0,N
1530650215.7,286046987.7,N
1530650235.5,286046984.4,Y
1530650255.4,286046989.4,P
1530650275.2,286046990.7,P
1530650295.1,286046996.3,P
1530650296.0,286046996.3,N
1530650315.8,286046993.7,N
1530650335.6,286046995.2,N
1530650355.5,286046995.4,N
1530650375.3,286047000.4,N
1530650395.1,286046999.8,N
1530650415.9,286047001.8,N
1530650435.7,286047003.4,N
1530650455.6,286047005.1,N
1530650475.4,286047005.0,N
1530650495.2,286047005.4,N
1530650515.1,286047007.2,N
1530650516.0,286047007.2,N
1530650535.8,286047006.5,N
1530650555.7,286047008.6,N
1530650575.5,286047008.2,N
1530650595.3,286047010.4,N
1530650615.2,286047012.3,N
1530650635.0,286047012.4,N
1530650635.9,286047012.4,N
1530650655.7,286047008.5,N
1530650675.6,286047007.9,N
1530650695.4,286047008.8,N
1530650715.3,286047008.5,N
1530650735.1,286047008.6,N
1530650736.0,286047008.6,N
1530650755.8,286047006.2,N
1530650775.7,286047006.2,N
1530650795.5,286047008.7,N
1530650815.3,286047008.0,N
1530650835.2,286047008.3,N
1530650855.0,286047010.4,N
1530650855.9,286047010.4,N
1530650875.8,286047010.4,N
1530650895.6,286047008.4,N
1530650915.4,286047009.0,Y
1530650935.3,286047000.9,P
1530650955.1,286047000.6,N
1530650975.9,286046998.6,N
1530650995.7,286046998.3,N
1530651015.5,286046998.6,N
1530651035.4,286046999.2,N
1530651055.2,286046999.2,N
1530651075.0,286046999.1,N
1530651075.9,286046999.1,N
1530651125.8,286046998.7,E
1530651135.7,286046998.4,N
1530651155.6,286046996.5,P
1530651175.4,286046999.6,N
1530651195.2,286046999.2,N
1530651215.1,286046999.2,N
1530651216.0,286046999.2,N
1530651235.8,286046999.2,N
1530651255.7,286046996.5,Y
1530651275.5,286046999.0,P
1530651295.3,286046996.5,P
1530651315.2,286046997.4,N
1530651335.0,286046997.7,N
1530651335.9,286046997.7,N
1530651355.8,286046997.7,N
1530651375.6,286046997.4,Y
1530651395.4,286047001.2,P
1530651415.3,286046998.1,N
1530651435.1,286047001.0,N
1530651455.8,286047001.0,N
1530651475.7,286047001.1,N
1530651495.5,286047000.7,N
1530651515.4,286046998.2,N
1530651535.2,286046998.8,N
1530651555.0,286046998.8,N
1530651555.9,286046998.8,N
1530651575.8,286046998.9,N
1530651595.6,286046996.7,N
